Weather observations for the past three days for
Natchez, Hardy-Anders Field Natchez-Adams County Airport
| Date | Time (cdt) | Wind (kph) | Vis. (km) | Weather | Sky Cond. | Temperature (ºC) | Relative Humidity | Wind Chill (°C) | Heat Index (°C) | Pressure | Precipitation (cm) | ||||||
|---|---|---|---|---|---|---|---|---|---|---|---|---|---|---|---|---|---|
| Air | Dwpt | 6 hour | altimeter (cm) | sea level (mb) | 1 hr | 3 hr | 6 hr | ||||||||||
| Max. | Min. | ||||||||||||||||
| 04 | 20:56 | S 9 | 16.09 | Fair | CLR | 0 | 0 | 0% | 75.95 | 0.0 | |||||||
| 04 | 19:56 | S 7 | 16.09 | Fair | CLR | 0 | 0 | 0% | 75.92 | 0.0 | |||||||
| 04 | 18:56 | S 11 | 16.09 | Fair | CLR | 0 | 0 | 0% | 75.95 | 0.0 | |||||||
| 04 | 17:56 | S 15 G 28 | 16.09 | Fair | CLR | 0 | 0 | 0% | 76 | 0.0 | |||||||
| 04 | 16:56 | S 17 G 28 | 16.09 | Fair | CLR | 0 | 0 | 0% | 76.05 | 0.0 | |||||||
| 04 | 15:56 | S 22 G 33 | 16.09 | Fair | CLR | 0 | 0 | 0% | 76.07 | 0.0 | |||||||
| 04 | 14:56 | SW 20 G 26 | 16.09 | Fair | CLR | 0 | 0 | 0% | 76.15 | 0.0 | |||||||
| 04 | 13:56 | S 19 G 28 | 16.09 | A Few Clouds | FEW060 | 0 | 0 | 0% | 76.2 | 0.0 | |||||||
| 04 | 12:56 | SW 15 | 16.09 | A Few Clouds | FEW055 | 0 | 0 | 0% | 76.25 | 0.0 | |||||||
| 04 | 11:56 | S 11 | 16.09 | A Few Clouds | FEW050 | 0 | 0 | 0% | 76.3 | 0.0 | |||||||
| 04 | 10:56 | SW 19 G 30 | 16.09 | Fair | CLR | 0 | 0 | 0% | 76.33 | 0.0 | |||||||
| 04 | 09:56 | S 15 | 16.09 | Fair | CLR | 0 | 0 | 0% | 76.35 | 0.0 | |||||||
| 04 | 08:56 | SW 11 | 16.09 | Fair | CLR | 0 | 0 | 0% | 76.35 | 0.0 | |||||||
| 04 | 07:56 | S 7 | 16.09 | Fair | CLR | 0 | 0 | 0% | 76.35 | 0.0 | |||||||
| 04 | 06:56 | S 7 | 16.09 | Fair | CLR | 0 | 0 | 0% | 76.33 | 0.0 | |||||||
| 04 | 05:56 | Calm | 16.09 | Fair | CLR | 0 | 0 | 0% | 76.3 | 0.0 | |||||||
| 04 | 04:56 | SE 6 | 16.09 | Fair | CLR | 0 | 0 | 0% | 76.3 | 0.0 | |||||||
| 04 | 03:56 | S 6 | 16.09 | Fair | CLR | 0 | 0 | 0% | 76.3 | 0.0 | |||||||
| 04 | 02:56 | Calm | 16.09 | Fair | CLR | 0 | 0 | 0% | 76.33 | 0.0 | |||||||
| 04 | 00:56 | Calm | 16.09 | Fair | CLR | 0 | 0 | 0% | 76.38 | 0.0 | |||||||
| 03 | 23:56 | S 7 | 16.09 | Fair | CLR | 0 | 0 | 0% | 76.4 | 0.0 | |||||||
| 03 | 22:56 | Calm | 16.09 | Fair | CLR | 0 | 0 | 0% | 76.43 | 0.0 | |||||||
| 03 | 21:56 | Calm | 16.09 | Fair | CLR | 0 | 0 | 0% | 76.43 | 0.0 | |||||||
| 03 | 20:56 | S 6 | 16.09 | Fair | CLR | 0 | 0 | 0% | 76.38 | 0.0 | |||||||
| 03 | 19:56 | Calm | 16.09 | Fair | CLR | 0 | 0 | 0% | 76.33 | 0.0 | |||||||
| 03 | 18:56 | Calm | 16.09 | Fair | CLR | 0 | 0 | 0% | 76.35 | 0.0 | |||||||
| 03 | 17:56 | Calm | 16.09 | Fair | CLR | 0 | 0 | 0% | 76.38 | 0.0 | |||||||
| 03 | 16:56 | Vrbl 6 | 16.09 | A Few Clouds | FEW065 | 0 | 0 | 0% | 76.4 | 0.0 | |||||||
| 03 | 15:56 | Vrbl 7 | 16.09 | Fair | CLR | 0 | 0 | 0% | 76.48 | 0.0 | |||||||
| 03 | 14:56 | W 11 | 16.09 | Fair | CLR | 0 | 0 | 0% | 76.56 | 0.0 | |||||||
| 03 | 12:56 | SW 11 | 16.09 | Fair | CLR | 0 | 0 | 0% | 76.66 | 0.0 | |||||||
| 03 | 11:56 | W 13 | 16.09 | Fair | CLR | 0 | 0 | 0% | 76.71 | 0.0 | |||||||
| 03 | 10:56 | W 15 | 16.09 | Fair | CLR | 0 | 0 | 0% | 76.76 | 0.0 | |||||||
| 03 | 09:56 | S 9 | 16.09 | Fair | CLR | 0 | 0 | 0% | 76.76 | 0.0 | |||||||
| 03 | 08:56 | SW 7 | 16.09 | Fair | CLR | 0 | 0 | 0% | 76.73 | 0.0 | |||||||
| 03 | 07:56 | Calm | 16.09 | Fair | CLR | 0 | 0 | 0% | 76.71 | 0.0 | |||||||
| 03 | 06:56 | Calm | 16.09 | Fair | CLR | 0 | 0 | 0% | 76.63 | 0.0 | |||||||
| 03 | 05:56 | Calm | 16.09 | Fair | CLR | 0 | 0 | 0% | 76.61 | 0.0 | |||||||
| 03 | 04:56 | SE 7 | 16.09 | Fair | CLR | 0 | 0 | 0% | 76.58 | 0.0 | |||||||
| 03 | 03:56 | SE 6 | 16.09 | Fair | CLR | 0 | 0 | 0% | 76.56 | 0.0 | |||||||
| 03 | 02:56 | Calm | 16.09 | Fair | CLR | 0 | 0 | 0% | 76.53 | 0.0 | |||||||
| 03 | 01:56 | Calm | 16.09 | Fair | CLR | 0 | 0 | 0% | 76.5 | 0.0 | |||||||
| 03 | 00:56 | Calm | 16.09 | Fair | CLR | 0 | 0 | 0% | 76.53 | 0.0 | |||||||
| 02 | 23:56 | Calm | 16.09 | Fair | CLR | 0 | 0 | 0% | 76.53 | 0.0 | |||||||
| 02 | 22:56 | Calm | 16.09 | Fair | CLR | 0 | 0 | 0% | 76.53 | 0.0 | |||||||
| 02 | 21:56 | Calm | 16.09 | Fair | CLR | 0 | 0 | 0% | 76.5 | 0.0 | |||||||
| 02 | 20:56 | Calm | 16.09 | Fair | CLR | 0 | 0 | 0% | 76.45 | 0.0 | |||||||
| 02 | 19:56 | Calm | 16.09 | Fair | CLR | 0 | 0 | 0% | 76.43 | 0.0 | |||||||
| 02 | 18:56 | N 11 | 16.09 | Fair | CLR | 0 | 0 | 0% | 76.4 | 0.0 | |||||||
| 02 | 17:56 | N 9 | 16.09 | Fair | CLR | 0 | 0 | 0% | 76.35 | 0.0 | |||||||
| 02 | 16:56 | N 22 | 16.09 | Fair | CLR | 0 | 0 | 0% | 76.33 | 0.0 | |||||||
| 02 | 15:56 | N 22 G 39 | 16.09 | Fair | CLR | 0 | 0 | 0% | 76.35 | 0.0 | |||||||
| 02 | 14:56 | N 22 | 16.09 | Fair | CLR | 0 | 0 | 0% | 76.4 | 0.0 | |||||||
| 02 | 13:56 | N 22 G 37 | 16.09 | Fair | CLR | 0 | 0 | 0% | 76.43 | 0.0 | |||||||
| 02 | 12:56 | N 26 G 35 | 16.09 | Fair | CLR | 0 | 0 | 0% | 76.45 | 0.0 | |||||||
| 02 | 11:56 | NE 17 | 16.09 | Fair | CLR | 0 | 0 | 0% | 76.48 | 0.0 | |||||||
| 02 | 10:56 | NE 24 G 33 | 16.09 | Fair | CLR | 0 | 0 | 0% | 76.48 | 0.0 | |||||||
| 02 | 09:56 | NE 17 | 16.09 | Fair | CLR | 0 | 0 | 0% | 76.43 | 0.0 | |||||||
| 02 | 08:56 | N 13 | 16.09 | A Few Clouds | FEW007 | 0 | 0 | 0% | 76.38 | 0.0 | |||||||
| 02 | 07:56 | N 9 | 16.09 | Overcast | OVC003 | 0 | 0 | 0% | 76.33 | 0.0 | |||||||
| 02 | 06:56 | N 7 | 8.05 | Overcast with Haze | OVC003 | 0 | 0 | 0% | 76.28 | 0.0 | 0.03 | ||||||
| 02 | 05:56 | N 6 | 1.21 | Fog/Mist | OVC003 | 0 | 0 | 0% | 76.2 | 0.0 | |||||||
| 02 | 04:56 | NW 6 | 8.05 | Overcast with Haze | OVC003 | 0 | 0 | 0% | 76.2 | 0.0 | |||||||
| 02 | 03:56 | NW 6 | 16.09 | Overcast | OVC003 | 0 | 0 | 0% | 76.17 | 0.0 | 0.03 | ||||||
| 02 | 02:56 | Calm | 16.09 | Overcast | OVC003 | 0 | 0 | 0% | 76.15 | 0.0 | |||||||
| 02 | 01:56 | N 11 | 16.09 | Overcast | BKN005 OVC050 | 0 | 0 | 0% | 76.17 | 0.0 | 0.03 | ||||||
| 02 | 00:56 | N 7 | 16.09 | Light Rain | OVC042 | 0 | 0 | 0% | 76.23 | 0.0 | 0.15 | 0.66 | |||||
| 01 | 23:56 | N 9 | 16.09 | Light Rain | OVC038 | 0 | 0 | 0% | 76.25 | 0.0 | 0.1 | ||||||
| 01 | 22:56 | NE 9 | 16.09 | Light Rain | FEW004 BKN012 OVC036 | 0 | 0 | 0% | 76.23 | 0.0 | 0.13 | ||||||
| 01 | 21:56 | NE 11 | 16.09 | Light Rain | SCT008 BKN037 OVC100 | 0 | 0 | 0% | 76.17 | 0.0 | 0.05 | 0.28 | |||||
| Date | Time (cdt) | Wind (kph) | Vis. (km) | Weather | Sky Cond. | Air | Dwpt | Max. | Min. | Relative Humidity | Wind Chill (°C) | Heat Index (°C) | altimeter (cm) | sea level (mb) | 1 hr | 3 hr | 6 hr |
| 6 hour | |||||||||||||||||
| Temperature (ºC) | Pressure | Precipitation (cm) | |||||||||||||||